This is the latest recevied weather packets stored in our database for station/object KE8WMS. If no packets are shown the sender has not sent any weather packets the latest 10 day(s).
| Time | Temp. | Humidity | Pressure | Rain* | Wind** | Luminosity | Snow |
|---|---|---|---|---|---|---|---|
| 1777905003 | 18.33° C | 55% | 1004.4 hPa | 0 mm | - | 563 W/m² | - |
| 1777904701 | 18.33° C | 57% | 1004.3 hPa | 0 mm | - | 550 W/m² | - |
| 1777904397 | 17.78° C | 58% | 1004.5 hPa | 0 mm | - | 541 W/m² | - |
| 1777904094 | 17.78° C | 55% | 1004.5 hPa | 0 mm | - | 524 W/m² | - |
| 1777903791 | 16.67° C | 57% | 1004.3 hPa | 0 mm | - | 512 W/m² | - |
| 1777903487 | 16.67° C | 57% | 1004.3 hPa | 0 mm | - | 501 W/m² | - |
| 1777903184 | 16.67° C | 61% | 1004.7 hPa | 0 mm | - | 484 W/m² | - |
| 1777902880 | 16.67° C | 58% | 1004.7 hPa | 0 mm | - | 472 W/m² | - |
| 1777902577 | 16.11° C | 59% | 1004.7 hPa | 0 mm | - | 199 W/m² | - |
| 1777902274 | 15.56° C | 60% | 1004.8 hPa | 0 mm | - | 221 W/m² | - |
| 1777901972 | 15.56° C | 62% | 1004.7 hPa | 0 mm | - | 70 W/m² | - |
| 1777901669 | 15.56° C | 61% | 1004.4 hPa | 0 mm | - | 66 W/m² | - |
| 1777901366 | 15° C | 61% | 1004.8 hPa | 0 mm | - | 63 W/m² | - |
| 1777901064 | 14.44° C | 62% | 1004.9 hPa | 0 mm | - | 66 W/m² | - |
| 1777900761 | 14.44° C | 62% | 1005 hPa | 0 mm | - | 64 W/m² | - |
| 1777900458 | 14.44° C | 63% | 1005.1 hPa | 0 mm | - | 194 W/m² | - |
| 1777900156 | 14.44° C | 64% | 1005.3 hPa | 0 mm | - | 123 W/m² | - |
| 1777899852 | 13.89° C | 64% | 1005.1 hPa | 0 mm | - | 71 W/m² | - |
| 1777899549 | 13.89° C | 63% | 1005.3 hPa | 0 mm | - | 56 W/m² | - |
| 1777899247 | 13.33° C | 64% | 1005 hPa | 0 mm | - | 84 W/m² | - |
| 1777898944 | 13.33° C | 65% | 1005.2 hPa | 0 mm | - | 82 W/m² | - |
| 1777898641 | 13.33° C | 64% | 1005.6 hPa | 0 mm | - | 87 W/m² | - |
| 1777898338 | 12.78° C | 64% | 1005.2 hPa | 0 mm | - | 72 W/m² | - |
| 1777898035 | 12.78° C | 65% | 1005.3 hPa | 0 mm | - | 49 W/m² | - |
| 1777897731 | 12.78° C | 66% | 1005.2 hPa | 0 mm | - | 46 W/m² | - |
* Rain latest hour (hover to see other rain measurements)
** Current wind speed in m/s (hover to see current wind gust speed)